Regional Weather Roundup
Issued by NWS Charleston, SC

Current Version | Previous Version | Graphics & Text | Print | Product List | Glossary On
Versions: 1 2 3 4 5 6 7 8 9 10 11 12 13 14 15 16 17 18 19 20 21 22 23 24 25 26 27 28 29 30 31 32 33 34 35 36 37 38 39 40 41 42 43 44 45 46 47 48 49 50
000
ASUS42 KCHS 200025
RWRCHS

REGIONAL WEATHER ROUNDUP
NATIONAL WEATHER SERVICE CHARLESTON SC
800 PM EDT SUN OCT 19 2014

NOTE: "FAIR" INDICATES FEW OR NO CLOUDS BELOW 12,000 FEET WITH NO
SIGNIFICANT WEATHER AND/OR OBSTRUCTIONS TO VISIBILITY.

NOT ALL STATIONS ARE QUALITY CONTROLLED BY THE NATIONAL
WEATHER SERVICE. USE DATA WITH CAUTION...ESPECIALLY
DEWPOINT OBSERVATIONS.

SCZ027-030-031-034>040-042>050-200100-
...SOUTH CAROLINA...

CITY           SKY/WX    TMP DP  RH WIND       PRES   REMARKS
N CHARLESTON   PTCLDY    61  50  67 CALM      30.10R
6HR MIN TEMP:  61; 6HR MAX TEMP:  73;

WATERFRONT PRK   N/A     66 N/A N/A N3          N/A
FORT JOHNSON   NOT AVBL
JOHNS ISLAND   CLEAR     57  55  94 CALM      30.11R
PINOPOLIS        N/A     64  50  59 SW2       30.02R
MONCKS CORNER  FAIR      55  55 100 CALM      30.11R
SUMMERVILLE    FAIR      55  55 100 CALM      30.12R
BEAUFORT MCAS  CLEAR     61  54  77 CALM      30.10R
6HR MIN TEMP:  60; 6HR MAX TEMP:  73;

BEAUFORT ARPT  FAIR      59  54  82 CALM      30.10R HAZE
HILTON HEAD IS CLEAR     57  54  88 CALM      30.11R
GEORGETOWN     NOT AVBL
WALTERBORO     PTCLDY    55 N/A N/A CALM      30.11S
ORANGEBURG     PTCLDY    58  50  75 CALM      30.11R
6HR MIN TEMP:  58; 6HR MAX TEMP:  72;

BARNWELL       FAIR      57  52  82 CALM      30.11R
AIKEN          FAIR      55  52  88 CALM      30.13S
MANNING        FAIR      55  55 100 CALM      30.11R
KINGSTREE      NOT AVBL
COLUMBIA       PTCLDY    58  51  78 SW3       30.10R
6HR MIN TEMP:  58; 6HR MAX TEMP:  72;

SUMTER         CLEAR     58  48  69 CALM      30.09R
6HR MIN TEMP:  57; 6HR MAX TEMP:  71;

FLORENCE       CLEAR     57  47  69 CALM      30.10R
6HR MIN TEMP:  57; 6HR MAX TEMP:  71;

MYRTLE BEACH   CLEAR     57  48  72 N6        30.07F
N MYRTLE BEACH CLEAR     54  49  83 CALM      30.10R
6HR MIN TEMP:  54; 6HR MAX TEMP:  70;


$$

GAZ063-065-086>088-099>101-113>116-118-119-134-136>141-150-200100-
...GEORGIA...

CITY           SKY/WX    TMP DP  RH WIND       PRES   REMARKS
SAVANNAH ARPT  MOCLDY    62  50  64 CALM      30.10R
6HR MIN TEMP:  61; 6HR MAX TEMP:  75;

HUNTER AAF     CLEAR     61  53  76 SE1       30.08R
6HR MIN TEMP:  61; 6HR MAX TEMP:  73; 6HR PCP: TRACE;

FORT STEWART   CLEAR     60  53  79 CALM      30.09R
6HR MIN TEMP:  60; 6HR MAX TEMP:  73;

STATESBORO     NOT AVBL
SYLVANIA       CLEAR     61  58  90 CALM      30.11R
CLAXTON        FAIR      57  57 100 CALM      30.10R
THOMSON        CLEAR     57  57 100 CALM      30.15R
AUGUSTA-BUSH   CLEAR     56  48  74 CALM      30.09R
6HR MIN TEMP:  56; 6HR MAX TEMP:  74;

AUGUSTA-DANIEL CLEAR     66  47  50 SE3       30.10R
SWAINSBORO     FAIR      59  52  77 MISG      30.10R
VIDALIA        CLEAR     59  54  82 CALM      30.09S
ALMA           CLEAR     57  52  83 CALM      30.08R
6HR MIN TEMP:  57; 6HR MAX TEMP:  75;

WAYCROSS       CLEAR     62  59  89 SE6       30.09R
JESUP          FAIR      61  57  88 CALM      30.10R
BRUNSWICK      CLEAR     59  54  82 CALM      30.10S
SAINT SIMONS   CLEAR     62  52  69 E7        30.09R
6HR MIN TEMP:  62; 6HR MAX TEMP:  70;


$$

SCZ027-028-034-036>038-045-046-048>050-GAZ119-141-200100-
...LAKE AND SUPPLEMENTAL COASTAL OBSERVATIONS...

STATION/POSITION TIME  TEMP    WIND        PRES    WAVE   SWELL
                       AIR SEA DIR/SP/G            HT/PER HT/PER/DIR
                 (UTC) (F)     (DEG/KT/KT) (MB)    (FT/S) (FT/S/D)
UPR LAKE MARION  NOT AVBL
WINYAH BAY       0000   58     300/  2     1019.0S
LAKE MURRAY      2300   64      CALM  /  2 1018.3R
ACE BASIN NERRS  0000   58        CALM     1019.0S
FORT PULASKI     0000   68      50/  5/  6 1019.3R
SAPELO ISLAND    NOT AVBL

$$

ANZ835-935-AMZ111-154-330-350-352-354-374-450-454-472-200100-
...C-MAN AND BUOY OBSERVATIONS...

STATION/POSITION TIME  TEMP    WIND        PRES    WAVE   SWELL
                       AIR SEA DIR/SP/G            HT/PER HT/PER/DIR
                 (UTC) (F)     (DEG/KT/KT) (MB)    (FT/S) (FT/S/D)
FOLLY BEACH CMAN 0000   64     310/  4/  4 1019.9R
BUOY 41004       0000   68 79  360/ 10/ 14 1018.9R   4/11   3/11
BUOY 41008       0000   68 76   60/ 10/ 12 1018.8R   3/ 7   3/ 70/ 7
5E ST. MARYS GA  2300      78                N/A     4/ 7   2/100/13
FRYING PAN BUOY  0000   66 76  360/  8/ 12 1019.7R   3/12   2/100/12
BUOY 41025       0000   62     330/ 14/ 19 1018.6R   5/ 8   3/ 20/ 8
CAPE LOOKOUT NC  0000   62     350/  8/ 10 1019.3R
BUOY 41002       NOT AVBL
BUOY 41010       0000   78 81   30/ 16/ 19 1016.3R   4/ 6   2/ 40/11
BUOY 41012       NOT AVBL
ST AUGUSTINE FL  0000   73      30/ 13/ 15 1018.4R
CAPERS NEARSHORE 2300   67     350/  8/  8   N/A
FRIPP NEARSHORE  NOT AVBL


$$


USA.gov is the U.S. government's official web portal to all federal, state and local government web resources and services.